Modesto, CA

3:18 AM PST on February 24, 2018 (GMT -0800)
Modesto City-County-Sham

Weather History for KMOD - September, 2013

Change the Weather History Date:

Wednesday, September 18, 2013

  Actual Average Record
Temperature  
Mean Temperature 73 °F -  
Max Temperature 86 °F 89 °F 102 °F (1984)
Min Temperature 60 °F 59 °F 44 °F (1947)
Degree Days  
Heating Degree Days 0 0  
Month to date heating degree days 0 0  
Since 1 July heating degree days 0 0  
Cooling Degree Days 8 9  
Month to date cooling degree days 206 184  
Year to date cooling degree days 1678 1520  
Growing Degree Days 22 (Base 50)    
Moisture  
Dew Point 46 °F    
Average Humidity 47    
Maximum Humidity 72    
Minimum Humidity 22    
Precipitation  
Precipitation 0.00 in 0.01 in 1.86 in (1959)
Month to date precipitation 0.00 0.10  
Year to date precipitation 3.21 8.87  
Since 1 July precipitation 0.00  
Snow  
Snow 0.00 in - - ()
Month to date snowfall 0.0  
Since 1 July snowfall 0.0  
Since 1 September snowfall 0.0  
Snow Depth -    
Sea Level Pressure  
Sea Level Pressure 29.83 in    
Wind  
Wind Speed 10 mph (NW)    
Max Wind Speed 20 mph    
Max Gust Speed 28 mph    
Visibility 10 miles    
Events      
T = Trace of Precipitation, MM = Missing Value Source: NWS Daily Summary

Daily Weather History Graph

Daily Weather History Graph

Search for Another Location

Airport or City:

Trip Planner

Search our weather history database for the weather conditions in past years. The results will help you decide how hot, cold, wet, or windy it might be!

Date:

Astronomy

Sep. 18, 2013 Rise Set
Actual Time 6:48 AM PDT 7:06 PM PDT
Civil Twilight 6:22 AM PDT 7:32 PM PDT
Nautical Twilight 5:51 AM PDT 8:03 PM PDT
Astronomical Twilight 5:20 AM PDT 8:34 PM PDT
Moon 6:33 PM PDT (9/18) 5:57 AM PDT (9/18)
Length of Visible Light 13h 10m
Length of Day
12h 17m
Waxing Gibbous, 99% of the Moon is Illuminated
Sep 18
Waxing Gibbous
Sep 19
Full
Sep 26
Last Quarter
Oct 4
New
Oct 11
First Quarter

Hourly Weather History & Observations

Time (PDT) Temp. Dew Point Humidity Pressure Visibility Wind Dir Wind Speed Gust Speed Precip Events Conditions
12:53 AM 64.0 °F 52.0 °F 65% 29.83 in 10.0 mi NNW 9.2 mph - N/A   Clear
1:53 AM 63.0 °F 53.1 °F 70% 29.83 in 10.0 mi NNW 10.4 mph - N/A   Clear
2:53 AM 62.1 °F 52.0 °F 70% 29.82 in 10.0 mi NW 11.5 mph - N/A   Clear
3:53 AM 62.1 °F 51.1 °F 67% 29.81 in 10.0 mi WNW 12.7 mph - N/A   Clear
4:53 AM 61.0 °F 50.0 °F 67% 29.82 in 10.0 mi WNW 10.4 mph - N/A   Clear
5:53 AM 62.1 °F 48.0 °F 60% 29.83 in 10.0 mi NW 12.7 mph - N/A   Clear
6:53 AM 61.0 °F 46.9 °F 60% 29.86 in 10.0 mi NW 11.5 mph - N/A   Clear
7:53 AM 62.1 °F 46.9 °F 58% 29.88 in 10.0 mi WNW 9.2 mph - N/A   Clear
8:53 AM 66.0 °F 46.0 °F 48% 29.88 in 10.0 mi WNW 12.7 mph 19.6 mph N/A   Clear
9:53 AM 70.0 °F 45.0 °F 41% 29.88 in 10.0 mi WNW 18.4 mph 23.0 mph N/A   Clear
10:53 AM 73.9 °F 45.0 °F 35% 29.88 in 10.0 mi WNW 16.1 mph - N/A   Clear
11:53 AM 77.0 °F 45.0 °F 32% 29.86 in 10.0 mi NNW 11.5 mph - N/A   Clear
12:53 PM 80.1 °F 46.0 °F 30% 29.85 in 10.0 mi NW 10.4 mph - N/A   Clear
1:53 PM 82.9 °F 44.1 °F 25% 29.83 in 10.0 mi NW 11.5 mph 20.7 mph N/A   Clear
2:53 PM 84.9 °F 42.1 °F 22% 29.81 in 10.0 mi NW 10.4 mph 20.7 mph N/A   Clear
3:53 PM 84.9 °F 41.0 °F 21% 29.78 in 10.0 mi NW 12.7 mph - N/A   Clear
4:53 PM 84.9 °F 41.0 °F 21% 29.78 in 10.0 mi NW 8.1 mph - N/A   Clear
5:53 PM 84.0 °F 37.0 °F 19% 29.78 in 10.0 mi NNW 10.4 mph - N/A   Clear
6:53 PM 81.0 °F 39.0 °F 22% 29.78 in 10.0 mi NNW 6.9 mph - N/A   Clear
7:53 PM 77.0 °F 41.0 °F 28% 29.79 in 10.0 mi NW 4.6 mph - N/A   Clear
8:53 PM 73.9 °F 45.0 °F 35% 29.81 in 10.0 mi WNW 9.2 mph - N/A   Clear
9:53 PM 69.1 °F 45.0 °F 42% 29.81 in 10.0 mi NW 8.1 mph - N/A   Clear
10:53 PM 70.0 °F 45.0 °F 41% 29.81 in 10.0 mi WNW 3.5 mph - N/A   Clear
11:53 PM 62.1 °F 48.0 °F 60% 29.82 in 10.0 mi East 3.5 mph - N/A   Clear